Location: Casa Rossa
(45.2389°N, 12.2056°E)
Time: 23:52:08
(UTC+00:00)

NOSS 2-1 (D) - Pass Details

Date: 14 July 2020
Orbit: 447 x 1756 km, 63.3° (Epoch: 01 August)

Event Time Altitude Azimuth Distance (km) Brightness Sun altitude
Rises 00:30:55 0° 319° (NW) 3,094 7.6 -21.0°
Reaches altitude 10° 00:32:58 10° 317° (NW) 2,317 6.8 -20.9°
Maximum altitude 00:38:18 70° 235° (SW) 1,026 4.4 -20.6°
Enters shadow 00:43:40 19° 156° (SSE) 2,452 6.2 -20.3°
